[[{"header":{"parameterUnit":"m.s-1","parameterCategory":1,"la1":30.2991,"la2":30.254,"lo1":-89.0895,"lo2":-89.0444,"dy":0.0017,"dx":0.0017,"nx":28,"ny":28,"refTime":"2025-06-02T09:00:00:Z","depth":0,"parameterNumber":2,"parameterNumberName":"U-component_of_WINDS"},"data":[0,0,0,0,0,0,0,0,0,0,0,0,0,0,0,0,0,0,0,0,0,0,0,0,0,0,0,0,0,0,0,0,0,0,0,0,0,0,0,0,0,0,0,0,0,0,0,0,0,0,0,0,0,0,0,0,0,0,-2.4117,-2.4118,0,-2.4146,-2.4146,-2.4146,-2.4127,-2.4126,-2.4125,-2.4124,-2.4153,-2.4155,-2.4156,0,0,0,0,0,0,0,0,0,0,0,0,0,-2.4048,-2.4049,-2.4117,-2.4118,-2.4118,-2.4146,-2.4146,-2.4146,-2.4127,-2.4126,-2.4125,-2.4124,-2.4153,-2.4155,-2.4157,0,0,0,0,0,0,0,0,0,0,0,0,0,-2.4077,-2.405,-2.4117,-2.4112,-2.4112,-2.4145,-2.4146,-2.4146,-2.4127,-2.4126,-2.4125,-2.4123,-2.4152,-2.4154,-2.4157,-2.4198,0,0,-2.4164,-2.4165,0,0,0,0,0,0,0,0,-2.4076,-2.408,-2.4112,-2.4112,-2.4112,-2.4131,-2.4132,-2.4164,-2.4127,-2.4121,-2.4124,-2.4123,-2.4147,-2.415,-2.4158,-2.4199,-2.42,-2.4164,-2.4166,-2.4167,-2.4167,0,0,0,0,0,0,0,-2.4074,-2.4079,-2.4129,-2.4113,-2.4113,-2.4108,-2.4111,-2.4138,-2.4141,-2.4122,-2.412,-2.4124,-2.4147,-2.4156,-2.4158,-2.4201,-2.4164,-2.4166,-2.4168,-2.4169,-2.4278,-2.428,0,0,0,0,0,0,-2.4072,-2.4077,-2.4128,-2.4129,-2.409,-2.411,-2.4114,-2.4126,-2.4141,-2.4142,-2.4125,-2.4123,-2.4152,-2.4156,-2.4159,-2.4209,-2.4167,-2.4169,-2.417,-2.4277,-2.4278,-2.428,0,0,0,0,0,0,-2.4071,-2.4077,-2.4127,-2.4103,-2.4109,-2.4113,-2.4128,-2.4128,-2.4137,-2.4143,-2.4144,-2.4134,-2.4151,-2.4156,-2.4189,-2.421,-2.417,-2.4172,-2.4275,-2.4277,-2.4279,-2.4308,0,0,0,0,0,0,-2.4069,-2.4076,-2.4092,-2.4103,-2.411,-2.4155,-2.4129,-2.4129,-2.4141,-2.4138,-2.4151,-2.4152,-2.4151,-2.4185,-2.4191,-2.4212,-2.4174,-2.4273,-2.4276,-2.4279,-2.4305,-2.4311,-2.4316,0,0,0,0,0,-2.4066,-2.4099,-2.4093,-2.4099,-2.4129,-2.4156,-2.416,-2.4158,-2.4142,-2.4158,-2.4163,-2.4152,-2.4206,-2.4189,-2.4195,-2.4217,-2.4272,-2.4275,-2.4278,-2.4303,-2.431,-2.4316,0,0,0,0,0,0,-2.4089,-2.41,-2.4093,-2.413,-2.4143,-2.4153,-2.4173,-2.4165,-2.4182,-2.4179,-2.4175,-2.4178,-2.4212,-2.4218,-2.4198,-2.4258,-2.4237,-2.4242,-2.4253,-2.426,-2.4265,-2.4263,-2.4176,0,0,0,0,0,-2.4099,-2.4119,-2.4128,-2.4159,-2.4166,-2.4168,-2.418,-2.4177,-2.4189,-2.4194,-2.4201,-2.4214,-2.4234,-2.4247,-2.4266,-2.4306,-2.4309,-2.4325,-2.433,-2.4334,-2.4338,-2.4361,-2.4368,-2.4291,-2.4291,-2.4291,0,0,-2.4118,-2.4127,-2.414,-2.4164,-2.4173,-2.4195,-2.4173,-2.4197,-2.4213,-2.4198,-2.4229,-2.4235,-2.4249,-2.4286,-2.4302,-2.4291,-2.436,-2.4339,-2.4342,-2.4344,-2.4365,-2.4372,-2.4379,-2.4293,-2.4293,-2.4292,0,0,-2.4165,-2.4173,-2.4201,-2.4211,-2.4225,-2.4226,-2.4233,-2.4245,-2.4248,-2.4279,-2.4269,-2.4288,-2.4323,-2.4333,-2.4343,-2.4395,-2.4386,-2.4401,-2.4429,-2.4451,-2.4457,-2.4463,-2.4482,-2.4488,-2.4406,-2.4406,-2.4406,0,-2.4188,-2.422,-2.4216,-2.4241,-2.4253,-2.424,-2.4269,-2.4278,-2.4298,-2.4306,-2.4294,-2.4338,-2.4346,-2.4385,-2.4398,-2.4406,-2.4414,-2.44,-2.4457,-2.4462,-2.4467,-2.4485,-2.4492,-2.4407,-2.4407,-2.4407,-2.4407,0,-2.4247,-2.427,-2.4291,-2.431,-2.4324,-2.435,-2.4351,-2.4365,-2.4361,-2.4364,-2.4397,-2.4407,-2.4428,-2.4437,-2.4433,-2.4476,-2.4469,-2.4457,-2.4435,-2.4476,-2.4493,-2.45,-2.441,-2.4409,-2.4409,-2.4408,0,0,-2.4309,-2.4326,-2.4334,-2.4343,-2.4358,-2.4376,-2.4402,-2.4422,-2.4435,-2.4449,-2.4472,-2.4501,-2.449,-2.4502,-2.4499,-2.4518,-2.456,-2.4504,-2.4504,-2.4514,-2.4608,-2.4618,-2.4626,-2.4554,-2.4555,-2.4556,-2.4607,0,-2.4357,-2.4403,-2.4401,-2.4443,-2.4465,-2.4454,-2.4476,-2.4488,-2.4492,-2.4511,-2.4515,-2.4536,-2.452,-2.4527,-2.4545,-2.4551,-2.4579,-2.4547,-2.4575,-2.4576,-2.4572,-2.4635,-2.4644,-2.4692,-2.4614,-2.4615,-2.4616,0,-2.4419,-2.4436,-2.4481,-2.4493,-2.4502,-2.4522,-2.4541,-2.4559,-2.4573,-2.4574,-2.4587,-2.4582,-2.4609,-2.4587,-2.4625,-2.4603,-2.4615,-2.4619,-2.4621,-2.4624,-2.4599,-2.4639,-2.4707,-2.4715,-2.4626,-2.4625,-2.4625,0,-2.4461,-2.4494,-2.4525,-2.4533,-2.4548,-2.4563,-2.457,-2.4582,-2.4595,-2.4612,-2.462,-2.464,-2.4651,-2.4666,-2.4667,-2.465,-2.4705,-2.4683,-2.4707,-2.4708,-2.472,-2.4719,-2.4791,-2.4727,-2.4726,-2.4726,-2.4726,0,-2.4515,-2.4543,-2.4544,-2.4563,-2.4595,-2.4592,-2.4623,-2.4629,-2.464,-2.4661,-2.4652,-2.4672,-2.4671,-2.4691,-2.4691,-2.4723,-2.4728,-2.473,-2.473,-2.4731,-2.4731,-2.4739,-2.4736,-2.4728,-2.4728,-2.4727,-2.4727,0,-2.4567,-2.4568,-2.4602,-2.4613,-2.4617,-2.464,-2.465,-2.4668,-2.4671,-2.4698,-2.4704,-2.4709,-2.4732,-2.4734,-2.4761,-2.4761,-2.4799,-2.4795,-2.4795,-2.4794,-2.4819,-2.4817,-2.4899,-2.491,-2.4838,-2.4839,-2.4839,0,-2.4601,-2.4623,-2.4636,-2.4649,-2.4657,-2.4678,-2.4691,-2.469,-2.4704,-2.4721,-2.4738,-2.476,-2.4778,-2.4816,-2.4822,-2.4843,-2.484,-2.4867,-2.4843,-2.4844,-2.4841,-2.484,-2.4842,-2.4872,-2.4873,-2.4873,-2.4874,0,-2.4663,-2.4663,-2.4681,-2.4701,-2.4716,-2.4731,-2.4746,-2.4757,-2.4757,-2.4773,-2.4797,-2.4811,-2.4839,-2.4861,-2.4882,-2.4889,-2.4882,-2.4881,-2.4888,-2.489,-2.4889,-2.489,-2.4808,-2.488,-2.4879,-2.4879,-2.4878,-2.4878,-2.4707,-2.4726,-2.4739,-2.476,-2.4771,-2.4784,-2.4802,-2.4808,-2.4827,-2.4849,-2.4847,-2.4874,-2.4888,-2.4914,-2.4924,-2.4945,-2.4936,-2.4945,-2.4948,-2.4951,-2.4954,-2.4885,-2.4948,-2.4948,-2.4948,-2.4948,-2.4948,0,-2.4769,-2.4777,-2.4796,-2.4816,-2.4833,-2.4824,-2.484,-2.4855,-2.4878,-2.4891,-2.4909,-2.4937,-2.4959,-2.4967,-2.4989,-2.5004,-2.5001,-2.501,-2.5009,-2.5011,-2.496,-2.4952,-2.5012,-2.5012,-2.5012,-2.5012,-2.5012,-2.5012,-2.4803,-2.4834,-2.4836,-2.4873,-2.488,-2.4906,-2.4915,-2.4928,-2.4939,-2.497,-2.4988,-2.4993,-2.5004,-2.5027,-2.5047,-2.5049,-2.5058,-2.5068,-2.5068,-2.5021,-2.5014,-2.5008,-2.5001,-2.5069,-2.507,-2.5117,-2.5118,-2.5118]},{"header":{"parameterUnit":"m.s-1","parameterCategory":1,"la1":30.2991,"la2":30.254,"lo1":-89.0895,"lo2":-89.0444,"dy":0.0017,"dx":0.0017,"nx":28,"ny":28,"refTime":"2025-06-02T09:00:00:Z","depth":0,"parameterNumber":3,"parameterNumberName":"V-component_of_WINDS"},"data":[0,0,0,0,0,0,0,0,0,0,0,0,0,0,0,0,0,0,0,0,0,0,0,0,0,0,0,0,0,0,0,0,0,0,0,0,0,0,0,0,0,0,0,0,0,0,0,0,0,0,0,0,0,0,0,0,0,0,4.2724,4.2724,0,4.2716,4.2716,4.2715,4.2696,4.2696,4.2695,4.2695,4.2682,4.2682,4.2682,0,0,0,0,0,0,0,0,0,0,0,0,0,4.2722,4.2722,4.2724,4.2724,4.2724,4.2716,4.2716,4.2715,4.2696,4.2696,4.2695,4.2695,4.2682,4.2682,4.2682,0,0,0,0,0,0,0,0,0,0,0,0,0,4.2719,4.2722,4.2724,4.2713,4.2712,4.2716,4.2716,4.2715,4.2696,4.2696,4.2695,4.2694,4.2682,4.2682,4.2682,4.2694,0,0,4.2682,4.2682,0,0,0,0,0,0,0,0,4.2719,4.2719,4.2715,4.2714,4.2713,4.2706,4.271,4.2708,4.2696,4.2702,4.2695,4.2694,4.269,4.2689,4.2689,4.2693,4.2693,4.2682,4.2682,4.2682,4.2682,0,0,0,0,0,0,0,4.2719,4.2719,4.2721,4.2715,4.2714,4.2708,4.2707,4.271,4.2699,4.2702,4.27,4.27,4.2689,4.2689,4.2689,4.2692,4.2682,4.2682,4.2682,4.2682,4.2708,4.2709,0,0,0,0,0,0,4.2722,4.272,4.2721,4.272,4.2715,4.2709,4.2708,4.2709,4.2699,4.2697,4.27,4.2699,4.2689,4.2689,4.2688,4.2702,4.2682,4.2682,4.2682,4.2707,4.2708,4.2709,0,0,0,0,0,0,4.2722,4.2722,4.2721,4.272,4.2719,4.271,4.2711,4.2709,4.2709,4.2698,4.2696,4.2702,4.2689,4.2688,4.2693,4.2701,4.2682,4.2682,4.2707,4.2708,4.2709,4.273,0,0,0,0,0,0,4.2722,4.2722,4.2726,4.272,4.2719,4.2727,4.2712,4.2709,4.2709,4.2707,4.2699,4.2697,4.2688,4.2693,4.2693,4.2701,4.2682,4.2706,4.2707,4.2708,4.2728,4.2731,4.2734,0,0,0,0,0,4.2722,4.2731,4.2727,4.2727,4.2725,4.2727,4.2727,4.2718,4.271,4.2714,4.2708,4.2697,4.2701,4.2694,4.2694,4.2702,4.2705,4.2707,4.2708,4.2727,4.2731,4.2734,0,0,0,0,0,0,4.2736,4.273,4.2725,4.2733,4.2731,4.2724,4.2729,4.2722,4.2721,4.2719,4.2707,4.2705,4.2712,4.2708,4.27,4.2714,4.2702,4.2703,4.2716,4.2719,4.2722,4.2722,4.2682,0,0,0,0,0,4.2741,4.2745,4.2739,4.2746,4.2746,4.2738,4.2739,4.2732,4.2729,4.2728,4.2722,4.2718,4.2719,4.2719,4.2719,4.2729,4.2727,4.2734,4.2737,4.274,4.274,4.2746,4.2749,4.2714,4.2714,4.2714,0,0,4.2749,4.2747,4.2749,4.2749,4.2747,4.2751,4.2737,4.2741,4.2743,4.2728,4.2733,4.2729,4.2724,4.2732,4.2735,4.2729,4.275,4.2741,4.2744,4.2743,4.2748,4.2751,4.2754,4.2715,4.2715,4.2715,0,0,4.2767,4.2765,4.2772,4.2771,4.2769,4.2765,4.2767,4.2762,4.2759,4.2765,4.2754,4.2757,4.2758,4.2755,4.2754,4.2776,4.2766,4.2776,4.279,4.2796,4.2799,4.2801,4.2808,4.2811,4.2777,4.2778,4.2778,0,4.2777,4.2783,4.2776,4.2782,4.2782,4.2772,4.2779,4.2778,4.2775,4.2776,4.2769,4.2772,4.2768,4.2776,4.2782,4.2782,4.2783,4.2775,4.2799,4.2802,4.2804,4.281,4.2813,4.2779,4.2779,4.2778,4.2778,0,4.2796,4.28,4.2806,4.2806,4.2808,4.2814,4.2808,4.2811,4.2806,4.2802,4.2808,4.2804,4.2804,4.2806,4.2799,4.2814,4.281,4.2802,4.2788,4.2808,4.2814,4.2817,4.278,4.278,4.278,4.2779,0,0,4.2818,4.2818,4.282,4.2821,4.282,4.2823,4.283,4.2831,4.2834,4.2834,4.2838,4.2842,4.2835,4.2834,4.2828,4.2834,4.2851,4.2825,4.2825,4.2829,4.2867,4.2872,4.2875,4.2846,4.2847,4.2847,4.2867,0,4.2834,4.2846,4.2842,4.2853,4.2858,4.285,4.2856,4.2856,4.2853,4.2856,4.2853,4.2856,4.2847,4.2847,4.2852,4.2848,4.2858,4.2847,4.2849,4.2849,4.2849,4.2878,4.2882,4.2901,4.2869,4.287,4.287,0,4.2853,4.2856,4.2869,4.287,4.2871,4.2877,4.2879,4.2883,4.2883,4.2881,4.2882,4.2876,4.2882,4.2872,4.2881,4.2873,4.2874,4.2873,4.2874,4.2871,4.2859,4.2875,4.2907,4.2909,4.2874,4.2873,4.2873,0,4.2868,4.2875,4.2884,4.2886,4.2886,4.2891,4.2891,4.2891,4.2893,4.2896,4.2897,4.29,4.29,4.2903,4.2897,4.289,4.2907,4.2896,4.2905,4.2905,4.2906,4.2905,4.2936,4.291,4.291,4.291,4.291,0,4.2885,4.2893,4.2891,4.2896,4.2906,4.2902,4.2911,4.291,4.2911,4.2916,4.291,4.2914,4.2908,4.2912,4.2908,4.2916,4.2917,4.2915,4.2913,4.2914,4.2914,4.2913,4.2911,4.2911,4.291,4.291,4.291,0,4.2902,4.2901,4.2911,4.2912,4.2913,4.292,4.2921,4.2925,4.2924,4.2931,4.2932,4.293,4.2934,4.293,4.2934,4.2932,4.2942,4.294,4.2942,4.2941,4.295,4.2948,4.2979,4.2983,4.2956,4.2956,4.2956,0,4.2912,4.2918,4.2922,4.2926,4.2927,4.2933,4.2936,4.2934,4.2937,4.294,4.2944,4.2949,4.2953,4.2961,4.2959,4.2962,4.2959,4.297,4.2959,4.296,4.2958,4.2957,4.2957,4.2971,4.2971,4.2971,4.2972,0,4.293,4.2931,4.2936,4.2942,4.2946,4.2951,4.2954,4.2957,4.2955,4.2959,4.2965,4.2968,4.2974,4.2979,4.2982,4.2982,4.2976,4.2976,4.2978,4.2978,4.2979,4.2977,4.2947,4.2974,4.2974,4.2974,4.2973,4.2973,4.2943,4.2949,4.2953,4.296,4.2963,4.2967,4.2973,4.2974,4.2979,4.2984,4.2983,4.299,4.2992,4.2997,4.2998,4.3003,4.2998,4.3001,4.3001,4.3002,4.3003,4.298,4.3003,4.3003,4.3003,4.3003,4.3003,0,4.2961,4.2964,4.2971,4.2977,4.2983,4.298,4.2984,4.2989,4.2995,4.2999,4.3004,4.3011,4.3016,4.3017,4.3021,4.3026,4.3023,4.3027,4.3025,4.3025,4.3007,4.3004,4.3029,4.3029,4.3029,4.3029,4.3029,4.3029,4.297,4.2981,4.2982,4.2994,4.2997,4.3005,4.3008,4.3011,4.3014,4.3024,4.3029,4.303,4.3032,4.3038,4.3043,4.3042,4.3044,4.3048,4.3047,4.3029,4.3027,4.3024,4.3021,4.3049,4.3049,4.3065,4.3065,4.3065]}]]